Regional Weather Roundup
Issued by NWS

Home | Current Version | Previous Version | Text Only | Print | Product List | Glossary Off
Versions: 1 2 3 4 5 6 7 8 9 10 11 12 13 14 15 16 17 18 19 20 21 22 23 24 25 26 27 28 29 30 31 32 33 34 35 36 37 38 39 40 41 42 43 44 45 46 47 48 49 50

000
ASUS43 KBIS 190510
RWRND

NORTH DAKOTA REGIONAL WEATHER ROUNDUP
NATIONAL WEATHER SERVICE BISMARCK ND
1100 PM CST SAT FEB 18 2017

NOTE: "FAIR" INDICATES FEW OR NO CLOUDS BELOW 12,000 FEET WITH NO
SIGNIFICANT WEATHER AND/OR OBSTRUCTIONS TO VISIBILITY.


NDZ001>003-009>011-017-190600-
NORTHWEST NORTH DAKOTA

CITY           SKY/WX    TMP DP  RH WIND       PRES   REMARKS
WILLISTON      FAIR      33  30  88 E7        29.67F
MINOT          CLOUDY    34  32  92 E5        29.73S
MINOT AFB      CLOUDY    33  31  92 E6        29.73S
$$

NDZ018>021-031>035-040>046-190600-
SOUTHWEST NORTH DAKOTA

CITY           SKY/WX    TMP DP  RH WIND       PRES   REMARKS
BISMARCK       FAIR      36  33  89 NE9       29.68S
DICKINSON      FAIR      28  27  96 NE6       29.61S
GARRISON         N/A     35  31  85 E13       29.69S
HETTINGER ARPT CLOUDY    29  26  89 CALM      29.63S
$$

NDZ004>008-012>016-024-026-027-054-190600-
NORTHEAST NORTH DAKOTA

CITY           SKY/WX    TMP DP  RH WIND       PRES   REMARKS
GRAND FORKS    MOCLDY    35  30  82 SE5       29.81S
GRND FRKS AFB  CLOUDY    33  32  95 CALM      29.81S
DEVILS LAKE    CLOUDY    34  31  88 E5        29.79R
$$

NDZ022-023-025-028>030-036>039-047>053-190600-
SOUTHEAST NORTH DAKOTA

CITY           SKY/WX    TMP DP  RH WIND       PRES   REMARKS
FARGO          CLOUDY    36  35  96 E5        29.81R
JAMESTOWN      FAIR      35  32  88 E10       29.74F
$$





USA.gov is the U.S. government's official web portal to all federal, state and local government web resources and services.